TimeEDT,TemperatureF,Dew PointF,Humidity,Sea Level PressureIn,VisibilityMPH,Wind Direction,Wind SpeedMPH,Gust SpeedMPH,PrecipitationIn,Events,Conditions,WindDirDegrees,DateUTC
12:53 AM,66.9,66.0,97,30.02,6.0,Calm,Calm,-,N/A,,Clear,0,2013-08-30 04:53:00
1:38 AM,66.2,64.4,94,30.02,3.0,Calm,Calm,-,N/A,,Partly Cloudy,0,2013-08-30 05:38:00
1:53 AM,64.9,64.0,97,30.01,6.0,Calm,Calm,-,N/A,,Partly Cloudy,0,2013-08-30 05:53:00
2:22 AM,64.4,62.6,94,30.01,2.5,Calm,Calm,-,N/A,,Clear,0,2013-08-30 06:22:00
2:30 AM,64.4,62.6,94,30.01,5.0,Calm,Calm,-,N/A,,Clear,0,2013-08-30 06:30:00
2:37 AM,64.4,62.6,94,30.01,1.8,Calm,Calm,-,N/A,,Partly Cloudy,0,2013-08-30 06:37:00
2:45 AM,64.4,62.6,94,30.01,1.0,Calm,Calm,-,N/A,,Mist,0,2013-08-30 06:45:00
2:53 AM,64.0,63.0,96,30.00,1.0,Calm,Calm,-,N/A,,Mist,0,2013-08-30 06:53:00
2:59 AM,64.4,62.6,94,30.01,2.0,Calm,Calm,-,N/A,,Scattered Clouds,0,2013-08-30 06:59:00
3:08 AM,64.4,62.6,94,30.01,6.0,Calm,Calm,-,N/A,,Mostly Cloudy,0,2013-08-30 07:08:00
3:15 AM,64.4,62.6,94,30.01,1.8,Calm,Calm,-,N/A,,Mostly Cloudy,0,2013-08-30 07:15:00
3:32 AM,64.4,62.6,94,30.01,2.5,Calm,Calm,-,N/A,,Overcast,0,2013-08-30 07:32:00
3:39 AM,66.2,64.4,94,30.01,3.0,Calm,Calm,-,N/A,,Overcast,0,2013-08-30 07:39:00
3:42 AM,66.2,64.4,94,30.01,1.8,Calm,Calm,-,N/A,,Overcast,0,2013-08-30 07:42:00
3:47 AM,64.4,64.4,100,30.01,0.8,Calm,Calm,-,N/A,,Overcast,0,2013-08-30 07:47:00
3:53 AM,64.9,64.0,97,30.00,0.5,Calm,Calm,-,N/A,Fog,Fog,0,2013-08-30 07:53:00
4:53 AM,66.0,64.9,96,30.00,0.2,Calm,Calm,-,N/A,Fog,Fog,0,2013-08-30 08:53:00
5:53 AM,66.0,64.9,96,30.00,0.2,Calm,Calm,-,0.01,Fog,Fog,0,2013-08-30 09:53:00
6:53 AM,66.0,64.9,96,30.01,0.2,Calm,Calm,-,N/A,Fog,Fog,0,2013-08-30 10:53:00
7:53 AM,66.0,64.9,96,30.01,0.2,Calm,Calm,-,N/A,Fog,Fog,0,2013-08-30 11:53:00
8:53 AM,68.0,66.9,96,30.02,1.0,Calm,Calm,-,N/A,,Overcast,0,2013-08-30 12:53:00
9:22 AM,69.8,69.8,100,30.02,1.2,SSE,3.5,-,N/A,,Overcast,160,2013-08-30 13:22:00
9:29 AM,71.6,69.8,94,30.02,1.8,Calm,Calm,-,N/A,,Overcast,0,2013-08-30 13:29:00
9:40 AM,71.6,69.8,94,30.02,2.5,SSW,4.6,-,N/A,,Overcast,210,2013-08-30 13:40:00
9:53 AM,73.0,69.1,87,30.01,3.0,Calm,Calm,-,N/A,,Overcast,0,2013-08-30 13:53:00
10:19 AM,73.4,69.8,88,30.01,3.0,Calm,Calm,-,N/A,,Haze,0,2013-08-30 14:19:00
10:53 AM,75.9,69.1,79,30.00,4.0,Variable,4.6,-,N/A,,Haze,0,2013-08-30 14:53:00
11:36 AM,78.8,69.8,74,30.00,5.0,Calm,Calm,-,N/A,,Haze,0,2013-08-30 15:36:00
11:53 AM,79.0,70.0,74,29.98,5.0,Calm,Calm,-,N/A,,Haze,0,2013-08-30 15:53:00
12:15 PM,78.8,69.8,74,29.98,5.0,Calm,Calm,-,N/A,,Haze,0,2013-08-30 16:15:00
12:53 PM,82.0,71.1,69,29.95,6.0,Calm,Calm,-,N/A,,Haze,0,2013-08-30 16:53:00
1:53 PM,84.0,72.0,67,29.92,7.0,SSE,6.9,-,N/A,,Clear,150,2013-08-30 17:53:00
2:53 PM,84.9,72.0,65,29.91,7.0,Variable,5.8,-,N/A,,Partly Cloudy,0,2013-08-30 18:53:00
3:53 PM,87.1,72.0,61,29.88,7.0,SSE,8.1,-,N/A,,Clear,150,2013-08-30 19:53:00
4:53 PM,86.0,70.0,59,29.87,7.0,Variable,4.6,-,N/A,,Clear,0,2013-08-30 20:53:00
5:53 PM,84.0,68.0,58,29.86,8.0,SSE,8.1,-,N/A,,Clear,160,2013-08-30 21:53:00
6:53 PM,82.0,70.0,67,29.83,7.0,South,3.5,-,N/A,,Clear,170,2013-08-30 22:53:00
7:53 PM,77.0,70.0,79,29.83,7.0,Calm,Calm,-,N/A,,Clear,0,2013-08-30 23:53:00
8:53 PM,75.0,69.1,82,29.86,8.0,Calm,Calm,-,N/A,,Clear,0,2013-08-31 00:53:00
9:53 PM,72.0,69.1,91,29.85,7.0,South,3.5,-,N/A,,Clear,170,2013-08-31 01:53:00
10:53 PM,71.1,68.0,90,29.85,6.0,Calm,Calm,-,N/A,,Clear,0,2013-08-31 02:53:00
11:53 PM,70.0,68.0,93,29.86,7.0,Calm,Calm,-,N/A,,Clear,0,2013-08-31 03:53:00